Flag for U.S.A. Weather past 2 weeks in Peoria, Illinois, U.S.A.

Now
75 °F

Sunny.


Feels Like: 77 °F
Forecast: 59 / 80 °F
Wind: 3 mph from North

Location: Greater Peoria Regional Airport

Current Time: Jul 30, 2014 at 10:14:16 AM

Latest Report: Jul 30, 2014 at 9:54 AM


Visibility: 10 mi

Pressure: 30.07 "Hg

Humidity: 62%

Dew point: 61 °F

Location of PeoriaLocation

Historic Weather in Peoria — Graph

°F

Peoria temperature yesterday

Maximum temperature yesterday: 81 °F (at 3:54 PM)
Minimum temperature yesterday: 58 °F (at 12:54 AM)
Average temperature yesterday: 70 °F

Past Weeks' High & Low Weather Summary

 TemperatureHumidityPressure
High87 °F (Jul 21, 2:54 PM)94% (Jul 27, 2:03 AM)30.16 "Hg (Jul 27, 2:03 AM)
Low55 °F (Jul 16, 5:54 AM)38% (Jul 24, 3:54 PM)29.78 "Hg (Jul 27, 4:54 AM)
Average71 °F66%30.02 "Hg
* Reported Jul 15 8:54 AM — Jul 30 8:54 AM, Peoria, Weather by CustomWeather, © 2014

Note: Actual official high and low records may vary slightly from our data, if they occured in-between our weather recording intervals... More about our weather records

Advertising

Peoria weather history for previous 24 hours

 ConditionsComfort  
Time TempWeatherWind HumidityBarometerVisibility
8:54 AM
Jul 30
70 °FSunny.No wind71%30.07 "Hg10 mi
7:54 AM66 °FSunny.No wind75%30.06 "Hg10 mi
6:54 AM62 °FSunny.No wind80%30.05 "Hg10 mi
5:54 AM61 °FClear.No wind83%30.03 "Hg10 mi
4:54 AM62 °FClear.3 mph80%30.03 "Hg10 mi
3:54 AM63 °FClear.5 mph78%30.03 "Hg10 mi
2:54 AM64 °FPassing clouds.No wind78%30.04 "Hg10 mi
1:54 AM65 °FClear.No wind76%30.04 "Hg10 mi
12:54 AM66 °FClear.5 mph73%30.05 "Hg10 mi
11:54 PM
Jul 29
66 °FClear.5 mph73%30.05 "Hg10 mi
10:54 PM66 °FClear.3 mph75%30.05 "Hg10 mi
9:54 PM68 °FClear.3 mph70%30.04 "Hg10 mi
8:54 PM70 °FSunny.No wind66%30.03 "Hg10 mi
7:54 PM74 °FSunny.5 mph56%30.04 "Hg10 mi
6:54 PM78 °FSunny.8 mph48%30.04 "Hg10 mi
5:54 PM80 °FSunny.9 mph44%30.04 "Hg10 mi
4:54 PM80 °FPassing clouds.12 mph42%30.05 "Hg10 mi
3:54 PM81 °FPassing clouds.9 mph41%30.07 "Hg10 mi
2:54 PM79 °FPassing clouds.12 mph44%30.08 "Hg10 mi
1:54 PM79 °FPassing clouds.10 mph42%30.09 "Hg10 mi
12:54 PM79 °FSunny.10 mph44%30.09 "Hg10 mi
11:54 AM77 °FSunny.8 mph47%30.10 "Hg10 mi
10:54 AM75 °FSunny.7 mph50%30.11 "Hg10 mi
Weather by CustomWeather, © 2014

See weather overviewHow to use our weather pages